Flag for Germany Weather past 2 weeks in Recklinghausen, North Rhine-Westphalia, Germany

Now
52 °F

Sunny.


Feels Like: 49 °F
Forecast: 40 / 61 °F
Wind: 7 mph from Northeast

Location: Dortmund / Wickede

Current Time: Apr 19, 2015 at 1:48:37 PM

Latest Report: Apr 19, 2015 at 1:20 PM


Visibility: 10 mi

Pressure: 30.18 "Hg

Humidity: 58%

Dew point: 37 °F

Location of RecklinghausenLocation

Historic Weather in Recklinghausen — Graph

°F

Recklinghausen temperature yesterday

Maximum temperature yesterday: 55 °F (at 3:50 PM)
Minimum temperature yesterday: 34 °F (at 5:20 AM)
Average temperature yesterday: 47 °F

Past Weeks' High & Low Weather Summary

 TemperatureHumidityPressure
High73 °F (Apr 15, 4:20 PM)93% (Apr 5, 7:50 AM)30.63 "Hg (Apr 5, 7:50 AM)
Low28 °F (Apr 5, 6:50 AM)20% (Apr 10, 5:50 PM)29.92 "Hg (Apr 15, 6:20 PM)
Average50 °F59%30.24 "Hg
* Reported Apr 4 12:20 PM — Apr 19 12:20 PM, Recklinghausen, Weather by CustomWeather, © 2015

Note: Actual official high and low records may vary slightly from our data, if they occured in-between our weather recording intervals... More about our weather records

Advertising

Recklinghausen weather history for previous 24 hours

 ConditionsComfort  
Time TempWeatherWind HumidityBarometerVisibility
12:20 PM
Sun, Apr 19
48 °FPassing clouds.5 mph66%30.18 "HgN/A
11:50 AM46 °FSunny.6 mph71%30.18 "Hg10 mi
11:20 AM45 °FSunny.3 mph71%30.18 "Hg10 mi
10:50 AM43 °FSunny.3 mph76%30.18 "Hg10 mi
10:20 AM41 °FSunny.3 mph81%30.18 "Hg10 mi
9:50 AM41 °FSunny.3 mph76%30.18 "Hg10 mi
9:20 AM41 °FSunny.3 mph76%30.18 "Hg10 mi
8:50 AM39 °FSunny.2 mph81%30.18 "Hg10 mi
8:20 AM37 °FScattered clouds.No wind81%30.18 "HgN/A
7:50 AM36 °FPartly sunny.6 mph87%30.18 "HgN/A
7:20 AM36 °FPassing clouds.6 mph87%30.18 "HgN/A
6:50 AM36 °FPassing clouds.3 mph87%30.18 "HgN/A
6:20 AM36 °FPassing clouds.3 mph87%30.18 "HgN/A
5:20 AM36 °FClear.2 mph87%30.18 "Hg10 mi
10:50 PM
Sat, Apr 18
43 °FClear.6 mph57%30.24 "Hg10 mi
10:20 PM45 °FClear.5 mph53%30.27 "Hg10 mi
9:50 PM46 °FClear.3 mph50%30.27 "Hg10 mi
9:20 PM50 °FSunny.3 mph43%30.24 "Hg10 mi
8:50 PM50 °FSunny.5 mph40%30.24 "Hg10 mi
8:20 PM50 °FSunny.3 mph40%30.24 "Hg10 mi
7:50 PM52 °FPassing clouds.5 mph38%30.24 "HgN/A
7:20 PM52 °FPassing clouds.7 mph44%30.24 "HgN/A
6:50 PM54 °FPassing clouds.6 mph35%30.27 "HgN/A
6:20 PM54 °FPassing clouds.7 mph35%30.27 "HgN/A
5:50 PM54 °FPassing clouds.8 mph35%30.27 "HgN/A
5:20 PM55 °FPassing clouds.7 mph36%30.27 "HgN/A
4:50 PM55 °FPassing clouds.10 mph38%30.27 "HgN/A
4:20 PM55 °FPassing clouds.7 mph36%30.30 "HgN/A
3:50 PM55 °FPassing clouds.6 mph41%30.30 "HgN/A
3:20 PM54 °FPassing clouds.8 mph41%30.30 "HgN/A
2:50 PM52 °FPassing clouds.8 mph41%30.30 "HgN/A
2:20 PM52 °FPassing clouds.7 mph41%30.33 "HgN/A
1:50 PM52 °FPassing clouds.9 mph41%30.33 "HgN/A
1:20 PM50 °FScattered clouds.7 mph50%30.33 "HgN/A
Weather by CustomWeather, © 2015

See weather overviewHow to use our weather pages